Year,Month,Day,Hour,Minute,Value (Times are PST for temperature in C)
2015,07,14,00,00,15.40
2015,07,14,00,01,15.40
2015,07,14,00,02,15.40
2015,07,14,00,03,15.30
2015,07,14,00,04,15.30
2015,07,14,00,05,15.30
2015,07,14,00,06,15.30
2015,07,14,00,07,15.30
2015,07,14,00,08,15.30
2015,07,14,00,09,15.30
2015,07,14,00,10,15.30
2015,07,14,00,11,15.30
2015,07,14,00,12,15.30
2015,07,14,00,13,15.30
2015,07,14,00,14,15.30
2015,07,14,00,15,15.30
2015,07,14,00,16,15.30
2015,07,14,00,17,15.30
2015,07,14,00,18,15.30
2015,07,14,00,19,15.30
2015,07,14,00,20,15.30
2015,07,14,00,21,15.30
2015,07,14,00,22,15.30
2015,07,14,00,23,15.30
2015,07,14,00,24,15.30
2015,07,14,00,25,15.30
2015,07,14,00,26,15.30
2015,07,14,00,27,15.30
2015,07,14,00,28,15.30
2015,07,14,00,29,15.30
2015,07,14,00,30,15.20
2015,07,14,00,31,15.20
2015,07,14,00,32,15.20
2015,07,14,00,33,15.20
2015,07,14,00,34,15.20
2015,07,14,00,35,15.20
2015,07,14,00,36,15.20
2015,07,14,00,37,15.20
2015,07,14,00,38,15.10
2015,07,14,00,39,15.10
2015,07,14,00,40,15.10
2015,07,14,00,41,15.10
2015,07,14,00,42,15.10
2015,07,14,00,43,15.00
2015,07,14,00,44,15.00
2015,07,14,00,45,15.00
2015,07,14,00,46,14.90
2015,07,14,00,47,14.90
2015,07,14,00,48,14.90
2015,07,14,00,49,14.90
2015,07,14,00,50,14.80
2015,07,14,00,51,14.80
2015,07,14,00,52,14.80
2015,07,14,00,53,14.80
2015,07,14,00,54,14.70
2015,07,14,00,55,14.70
2015,07,14,00,56,14.70
2015,07,14,00,57,14.60
2015,07,14,00,58,14.60
2015,07,14,00,59,14.60
2015,07,14,01,00,14.60
2015,07,14,01,01,14.60
2015,07,14,01,02,14.50
2015,07,14,01,03,14.50
2015,07,14,01,04,14.40
2015,07,14,01,05,14.40
2015,07,14,01,06,14.40
2015,07,14,01,07,14.40
2015,07,14,01,08,14.30
2015,07,14,01,09,14.30
2015,07,14,01,10,14.30
2015,07,14,01,11,14.30
2015,07,14,01,12,14.20
2015,07,14,01,13,14.20
2015,07,14,01,14,14.20
2015,07,14,01,15,14.20
2015,07,14,01,16,14.10
2015,07,14,01,17,14.10
2015,07,14,01,18,14.10
2015,07,14,01,19,14.10
2015,07,14,01,20,14.10
2015,07,14,01,21,14.00
2015,07,14,01,22,14.00
2015,07,14,01,23,14.00
2015,07,14,01,24,14.00
2015,07,14,01,25,13.90
2015,07,14,01,26,13.90
2015,07,14,01,27,13.90
2015,07,14,01,28,13.90
2015,07,14,01,29,13.90
2015,07,14,01,30,13.80
2015,07,14,01,31,13.80
2015,07,14,01,32,13.80
2015,07,14,01,33,13.80
2015,07,14,01,34,13.80
2015,07,14,01,35,13.80
2015,07,14,01,36,13.70
2015,07,14,01,37,13.70
2015,07,14,01,38,13.70
2015,07,14,01,39,13.70
2015,07,14,01,40,13.70
2015,07,14,01,41,13.70
2015,07,14,01,42,13.60
2015,07,14,01,43,13.60
2015,07,14,01,44,13.60
2015,07,14,01,45,13.60
2015,07,14,01,46,13.60
2015,07,14,01,47,13.60
2015,07,14,01,48,13.60
2015,07,14,01,49,13.50
2015,07,14,01,50,13.50
2015,07,14,01,51,13.50
2015,07,14,01,52,13.50
2015,07,14,01,53,13.40
2015,07,14,01,54,13.40
2015,07,14,01,55,13.40
2015,07,14,01,56,13.40
2015,07,14,01,57,13.40
2015,07,14,01,58,13.40
2015,07,14,01,59,13.40
2015,07,14,02,00,13.40
2015,07,14,02,01,13.40
2015,07,14,02,02,13.40
2015,07,14,02,03,13.40
2015,07,14,02,04,13.40
2015,07,14,02,05,13.30
2015,07,14,02,06,13.30
2015,07,14,02,07,13.30
2015,07,14,02,08,13.30
2015,07,14,02,09,13.30
2015,07,14,02,10,13.30
2015,07,14,02,11,13.30
2015,07,14,02,12,13.30
2015,07,14,02,13,13.30
2015,07,14,02,14,13.30
2015,07,14,02,15,13.30
2015,07,14,02,16,13.30
2015,07,14,02,17,13.30
2015,07,14,02,18,13.30
2015,07,14,02,19,13.30
2015,07,14,02,20,13.30
2015,07,14,02,21,13.30
2015,07,14,02,22,13.30
2015,07,14,02,23,13.30
2015,07,14,02,24,13.30
2015,07,14,02,25,13.30
2015,07,14,02,26,13.30
2015,07,14,02,27,13.30
2015,07,14,02,28,13.30
2015,07,14,02,29,13.30
2015,07,14,02,30,13.30
2015,07,14,02,31,13.30
2015,07,14,02,32,13.30
2015,07,14,02,33,13.30
2015,07,14,02,34,13.30
2015,07,14,02,35,13.30
2015,07,14,02,36,13.20
2015,07,14,02,37,13.20
2015,07,14,02,38,13.20
2015,07,14,02,39,13.20
2015,07,14,02,40,13.20
2015,07,14,02,41,13.20
2015,07,14,02,42,13.20
2015,07,14,02,43,13.20
2015,07,14,02,44,13.10
2015,07,14,02,45,13.10
2015,07,14,02,46,13.10
2015,07,14,02,47,13.10
2015,07,14,02,48,13.10
2015,07,14,02,49,13.00
2015,07,14,02,50,13.00
2015,07,14,02,51,13.00
2015,07,14,02,52,13.00
2015,07,14,02,53,12.90
2015,07,14,02,54,12.90
2015,07,14,02,55,12.90
2015,07,14,02,56,12.90
2015,07,14,02,57,12.90
2015,07,14,02,58,12.90
2015,07,14,02,59,12.80
2015,07,14,03,00,12.80
2015,07,14,03,01,12.80
2015,07,14,03,02,12.80
2015,07,14,03,03,12.80
2015,07,14,03,04,12.80
2015,07,14,03,05,12.80
2015,07,14,03,06,12.80
2015,07,14,03,07,12.70
2015,07,14,03,08,12.70
2015,07,14,03,09,12.70
2015,07,14,03,10,12.70
2015,07,14,03,11,12.70
2015,07,14,03,12,12.70
2015,07,14,03,13,12.70
2015,07,14,03,14,12.70
2015,07,14,03,15,12.70
2015,07,14,03,16,12.60
2015,07,14,03,17,12.60
2015,07,14,03,18,12.60
2015,07,14,03,19,12.60
2015,07,14,03,20,12.60
2015,07,14,03,21,12.60
2015,07,14,03,22,12.60
2015,07,14,03,23,12.50
2015,07,14,03,24,12.50
2015,07,14,03,25,12.50
2015,07,14,03,26,12.50
2015,07,14,03,27,12.50
2015,07,14,03,28,12.50
2015,07,14,03,29,12.50
2015,07,14,03,30,12.50
2015,07,14,03,31,12.40
2015,07,14,03,32,12.40
2015,07,14,03,33,12.40
2015,07,14,03,34,12.40
2015,07,14,03,35,12.40
2015,07,14,03,36,12.40
2015,07,14,03,37,12.40
2015,07,14,03,38,12.40
2015,07,14,03,39,12.30
2015,07,14,03,40,12.30
2015,07,14,03,41,12.30
2015,07,14,03,42,12.30
2015,07,14,03,43,12.30
2015,07,14,03,44,12.30
2015,07,14,03,45,12.30
2015,07,14,03,46,12.30
2015,07,14,03,47,12.30
2015,07,14,03,48,12.30
2015,07,14,03,49,12.30
2015,07,14,03,50,12.30
2015,07,14,03,51,12.30
2015,07,14,03,52,12.20
2015,07,14,03,53,12.20
2015,07,14,03,54,12.20
2015,07,14,03,55,12.20
2015,07,14,03,56,12.20
2015,07,14,03,57,12.20
2015,07,14,03,58,12.20
2015,07,14,03,59,12.20
2015,07,14,04,00,12.20
2015,07,14,04,01,12.20
2015,07,14,04,02,12.20
2015,07,14,04,03,12.20
2015,07,14,04,04,12.20
2015,07,14,04,05,12.20
2015,07,14,04,06,12.20
2015,07,14,04,07,12.20
2015,07,14,04,08,12.10
2015,07,14,04,09,12.10
2015,07,14,04,10,12.10
2015,07,14,04,11,12.10
2015,07,14,04,12,12.10
2015,07,14,04,13,12.10
2015,07,14,04,14,12.10
2015,07,14,04,15,12.10
2015,07,14,04,16,12.10
2015,07,14,04,17,12.00
2015,07,14,04,18,12.00
2015,07,14,04,19,12.00
2015,07,14,04,20,12.00
2015,07,14,04,21,12.00
2015,07,14,04,22,12.00
2015,07,14,04,23,12.00
2015,07,14,04,24,12.00
2015,07,14,04,25,12.00
2015,07,14,04,26,11.90
2015,07,14,04,27,11.90
2015,07,14,04,28,11.90
2015,07,14,04,29,11.90
2015,07,14,04,30,11.90
2015,07,14,04,31,11.90
2015,07,14,04,32,11.90
2015,07,14,04,33,11.90
2015,07,14,04,34,11.90
2015,07,14,04,35,11.90
2015,07,14,04,36,11.90
2015,07,14,04,37,11.90
2015,07,14,04,38,11.90
2015,07,14,04,39,11.90
2015,07,14,04,40,11.90
2015,07,14,04,41,11.90
2015,07,14,04,42,11.90
2015,07,14,04,43,11.90
2015,07,14,04,44,11.90
2015,07,14,04,45,11.80
2015,07,14,04,46,11.80
2015,07,14,04,47,11.80
2015,07,14,04,48,11.90
2015,07,14,04,49,11.90
2015,07,14,04,50,11.90
2015,07,14,04,51,11.90
2015,07,14,04,52,11.90
2015,07,14,04,53,11.90
2015,07,14,04,54,11.90
2015,07,14,04,55,11.90
2015,07,14,04,56,11.90
2015,07,14,04,57,11.90
2015,07,14,04,58,11.90
2015,07,14,04,59,11.90
2015,07,14,05,00,11.90
2015,07,14,05,01,11.90
2015,07,14,05,02,11.90
2015,07,14,05,03,11.90
2015,07,14,05,04,11.90
2015,07,14,05,05,11.90
2015,07,14,05,06,11.90
2015,07,14,05,07,11.90
2015,07,14,05,08,11.90
2015,07,14,05,09,11.90
2015,07,14,05,10,11.90
2015,07,14,05,11,11.90
2015,07,14,05,12,11.90
2015,07,14,05,13,11.90
2015,07,14,05,14,11.90
2015,07,14,05,15,11.90
2015,07,14,05,16,11.90
2015,07,14,05,17,11.90
2015,07,14,05,18,11.90
2015,07,14,05,19,11.90
2015,07,14,05,20,11.90
2015,07,14,05,21,11.90
2015,07,14,05,22,11.90
2015,07,14,05,23,11.90
2015,07,14,05,24,11.80
2015,07,14,05,25,11.80
2015,07,14,05,26,11.80
2015,07,14,05,27,11.80
2015,07,14,05,28,11.80
2015,07,14,05,29,11.80
2015,07,14,05,30,11.80
2015,07,14,05,31,11.80
2015,07,14,05,32,11.80
2015,07,14,05,33,11.80
2015,07,14,05,34,11.80
2015,07,14,05,35,11.80
2015,07,14,05,36,11.80
2015,07,14,05,37,11.80
2015,07,14,05,38,11.80
2015,07,14,05,39,11.80
2015,07,14,05,40,11.80
2015,07,14,05,41,11.80
2015,07,14,05,42,11.80
2015,07,14,05,43,11.80
2015,07,14,05,44,11.80
2015,07,14,05,45,11.80
2015,07,14,05,46,11.80
2015,07,14,05,47,11.80
2015,07,14,05,48,11.80
2015,07,14,05,49,11.80
2015,07,14,05,50,11.80
2015,07,14,05,51,11.70
2015,07,14,05,52,11.70
2015,07,14,05,53,11.70
2015,07,14,05,54,11.70
2015,07,14,05,55,11.70
2015,07,14,05,56,11.70
2015,07,14,05,57,11.70
2015,07,14,05,58,11.70
2015,07,14,05,59,11.70
2015,07,14,06,00,11.70
2015,07,14,06,01,11.70
2015,07,14,06,02,11.70
2015,07,14,06,03,11.70
2015,07,14,06,04,11.70
2015,07,14,06,05,11.70
2015,07,14,06,06,11.60
2015,07,14,06,07,11.60
2015,07,14,06,08,11.60
2015,07,14,06,09,11.60
2015,07,14,06,10,11.60
2015,07,14,06,11,11.60
2015,07,14,06,12,11.60
2015,07,14,06,13,11.60
2015,07,14,06,14,11.60
2015,07,14,06,15,11.60
2015,07,14,06,16,11.60
2015,07,14,06,17,11.60
2015,07,14,06,18,11.60
2015,07,14,06,19,11.60
2015,07,14,06,20,11.60
2015,07,14,06,21,11.50
2015,07,14,06,22,11.50
2015,07,14,06,23,11.50
2015,07,14,06,24,11.50
2015,07,14,06,25,11.50
2015,07,14,06,26,11.50
2015,07,14,06,27,11.50
2015,07,14,06,28,11.50
2015,07,14,06,29,11.50
2015,07,14,06,30,11.50
2015,07,14,06,31,11.50
2015,07,14,06,32,11.50
2015,07,14,06,33,11.50
2015,07,14,06,34,11.50
2015,07,14,06,35,11.50
2015,07,14,06,36,11.50
2015,07,14,06,37,11.50
2015,07,14,06,38,11.50
2015,07,14,06,39,11.50
2015,07,14,06,40,11.50
2015,07,14,06,41,11.50
2015,07,14,06,42,11.50
2015,07,14,06,43,11.50
2015,07,14,06,44,11.50
2015,07,14,06,45,11.50
2015,07,14,06,46,11.50
2015,07,14,06,47,11.50
2015,07,14,06,48,11.50
2015,07,14,06,49,11.50
2015,07,14,06,50,11.60
2015,07,14,06,51,11.60
2015,07,14,06,52,11.60
2015,07,14,06,53,11.60
2015,07,14,06,54,11.60
2015,07,14,06,55,11.60
2015,07,14,06,56,11.60
2015,07,14,06,57,11.60
2015,07,14,06,58,11.60
2015,07,14,06,59,11.60
2015,07,14,07,00,11.60
2015,07,14,07,01,11.60
2015,07,14,07,02,11.60
2015,07,14,07,03,11.60
2015,07,14,07,04,11.70
2015,07,14,07,05,11.70
2015,07,14,07,06,11.70
2015,07,14,07,07,11.80
2015,07,14,07,08,11.80
2015,07,14,07,09,11.80
2015,07,14,07,10,11.90
2015,07,14,07,11,11.90
2015,07,14,07,12,11.90
2015,07,14,07,13,12.00
2015,07,14,07,14,12.00
2015,07,14,07,15,12.10
2015,07,14,07,16,12.20
2015,07,14,07,17,12.20
2015,07,14,07,18,12.20
2015,07,14,07,19,12.30
2015,07,14,07,20,12.30
2015,07,14,07,21,12.40
2015,07,14,07,22,12.50
2015,07,14,07,23,12.50
2015,07,14,07,24,12.60
2015,07,14,07,25,12.70
2015,07,14,07,26,12.80
2015,07,14,07,27,12.80
2015,07,14,07,28,12.90
2015,07,14,07,29,13.00
2015,07,14,07,30,13.10
2015,07,14,07,31,13.20
2015,07,14,07,32,13.20
2015,07,14,07,33,13.30
2015,07,14,07,34,13.40
2015,07,14,07,35,13.50
2015,07,14,07,36,13.50
2015,07,14,07,37,13.60
2015,07,14,07,38,13.60
2015,07,14,07,39,13.60
2015,07,14,07,40,13.70
2015,07,14,07,41,13.80
2015,07,14,07,42,13.90
2015,07,14,07,43,13.90
2015,07,14,07,44,14.00
2015,07,14,07,45,14.10
2015,07,14,07,46,14.10
2015,07,14,07,47,14.20
2015,07,14,07,48,14.20
2015,07,14,07,49,14.20
2015,07,14,07,50,14.20
2015,07,14,07,51,14.20
2015,07,14,07,52,14.20
2015,07,14,07,53,14.20
2015,07,14,07,54,14.20
2015,07,14,07,55,14.10
2015,07,14,07,56,14.10
2015,07,14,07,57,14.20
2015,07,14,07,58,14.20
2015,07,14,07,59,14.30
2015,07,14,08,00,14.30
2015,07,14,08,01,14.30
2015,07,14,08,02,14.40
2015,07,14,08,03,14.40
2015,07,14,08,04,14.40
2015,07,14,08,05,14.40
2015,07,14,08,06,14.50
2015,07,14,08,07,14.60
2015,07,14,08,08,14.60
2015,07,14,08,09,14.70
2015,07,14,08,10,14.80
2015,07,14,08,11,14.90
2015,07,14,08,12,15.00
2015,07,14,08,13,15.10
2015,07,14,08,14,15.10
2015,07,14,08,15,15.20
2015,07,14,08,16,15.30
2015,07,14,08,17,15.30
2015,07,14,08,18,15.40
2015,07,14,08,19,15.50
2015,07,14,08,20,15.50
2015,07,14,08,21,15.50
2015,07,14,08,22,15.60
2015,07,14,08,23,15.60
2015,07,14,08,24,15.70
2015,07,14,08,25,15.70
2015,07,14,08,26,15.70
2015,07,14,08,27,15.80
2015,07,14,08,28,15.80
2015,07,14,08,29,15.80
2015,07,14,08,30,15.90
2015,07,14,08,31,15.90
2015,07,14,08,32,15.90
2015,07,14,08,33,15.90
2015,07,14,08,34,15.90
2015,07,14,08,35,15.90
2015,07,14,08,36,16.00
2015,07,14,08,37,16.00
2015,07,14,08,38,16.10
2015,07,14,08,39,16.20
2015,07,14,08,40,16.30
2015,07,14,08,41,16.40
2015,07,14,08,42,16.40
2015,07,14,08,43,16.50
2015,07,14,08,44,16.60
2015,07,14,08,45,16.60
2015,07,14,08,46,16.60
2015,07,14,08,47,16.60
2015,07,14,08,48,16.60
2015,07,14,08,49,16.60
2015,07,14,08,50,16.50
2015,07,14,08,51,16.50
2015,07,14,08,52,16.50
2015,07,14,08,53,16.60
2015,07,14,08,54,16.60
2015,07,14,08,55,16.70
2015,07,14,08,56,16.80
2015,07,14,08,57,16.80
2015,07,14,08,58,16.70
2015,07,14,08,59,16.70
2015,07,14,09,00,16.70
2015,07,14,09,01,16.70
2015,07,14,09,02,16.80
2015,07,14,09,03,16.80
2015,07,14,09,04,16.80
2015,07,14,09,05,16.70
2015,07,14,09,06,16.80
2015,07,14,09,07,16.80
2015,07,14,09,08,16.90
2015,07,14,09,09,17.00
2015,07,14,09,10,17.10
2015,07,14,09,11,17.10
2015,07,14,09,12,17.10
2015,07,14,09,13,17.20
2015,07,14,09,14,17.30
2015,07,14,09,15,17.40
2015,07,14,09,16,17.40
2015,07,14,09,17,17.50
2015,07,14,09,18,17.60
2015,07,14,09,19,17.70
2015,07,14,09,20,17.80
2015,07,14,09,21,17.90
2015,07,14,09,22,17.90
2015,07,14,09,23,18.00
2015,07,14,09,24,18.00
2015,07,14,09,25,18.00
2015,07,14,09,26,18.00
2015,07,14,09,27,17.90
2015,07,14,09,28,17.80
2015,07,14,09,29,17.80
2015,07,14,09,30,17.80
2015,07,14,09,31,17.80
2015,07,14,09,32,17.80
2015,07,14,09,33,17.70
2015,07,14,09,34,17.70
2015,07,14,09,35,17.70
2015,07,14,09,36,17.70
2015,07,14,09,37,17.70
2015,07,14,09,38,17.70
2015,07,14,09,39,17.80
2015,07,14,09,40,17.90
2015,07,14,09,41,18.00
2015,07,14,09,42,18.10
2015,07,14,09,43,18.10
2015,07,14,09,44,18.20
2015,07,14,09,45,18.30
2015,07,14,09,46,18.50
2015,07,14,09,47,18.60
2015,07,14,09,48,18.60
2015,07,14,09,49,18.60
2015,07,14,09,50,18.60
2015,07,14,09,51,18.60
2015,07,14,09,52,18.60
2015,07,14,09,53,18.50
2015,07,14,09,54,18.50
2015,07,14,09,55,18.50
2015,07,14,09,56,18.50
2015,07,14,09,57,18.60
2015,07,14,09,58,18.70
2015,07,14,09,59,18.80
2015,07,14,10,00,18.90
2015,07,14,10,01,19.00
2015,07,14,10,02,19.00
2015,07,14,10,03,19.00
2015,07,14,10,04,19.00
2015,07,14,10,05,19.00
2015,07,14,10,06,19.10
2015,07,14,10,07,19.10
2015,07,14,10,08,19.20
2015,07,14,10,09,19.20
2015,07,14,10,10,19.20
2015,07,14,10,11,19.20
2015,07,14,10,12,19.20
2015,07,14,10,13,19.20
2015,07,14,10,14,19.20
2015,07,14,10,15,19.30
2015,07,14,10,16,19.30
2015,07,14,10,17,19.40
2015,07,14,10,18,19.40
2015,07,14,10,19,19.50
2015,07,14,10,20,19.60
2015,07,14,10,21,19.70
2015,07,14,10,22,19.70
2015,07,14,10,23,19.70
2015,07,14,10,24,19.80
2015,07,14,10,25,19.80
2015,07,14,10,26,19.90
2015,07,14,10,27,20.00
2015,07,14,10,28,20.00
2015,07,14,10,29,20.00
2015,07,14,10,30,20.00
2015,07,14,10,31,20.10
2015,07,14,10,32,20.20
2015,07,14,10,33,20.30
2015,07,14,10,34,20.40
2015,07,14,10,35,20.50
2015,07,14,10,36,20.70
2015,07,14,10,37,20.70
2015,07,14,10,38,20.70
2015,07,14,10,39,20.70
2015,07,14,10,40,20.50
2015,07,14,10,41,20.40
2015,07,14,10,42,20.30
2015,07,14,10,43,20.20
2015,07,14,10,44,20.10
2015,07,14,10,45,20.00
2015,07,14,10,46,20.00
2015,07,14,10,47,19.90
2015,07,14,10,48,20.00
2015,07,14,10,49,20.00
2015,07,14,10,50,20.10
2015,07,14,10,51,20.10
2015,07,14,10,52,20.20
2015,07,14,10,53,20.30
2015,07,14,10,54,20.40
2015,07,14,10,55,20.60
2015,07,14,10,56,20.70
2015,07,14,10,57,20.70
2015,07,14,10,58,20.80
2015,07,14,10,59,20.80
2015,07,14,11,00,20.80
2015,07,14,11,01,20.80
2015,07,14,11,02,20.80
2015,07,14,11,03,20.80
2015,07,14,11,04,20.90
2015,07,14,11,05,20.90
2015,07,14,11,06,20.90
2015,07,14,11,07,20.90
2015,07,14,11,08,20.90
2015,07,14,11,09,21.00
2015,07,14,11,10,21.00
2015,07,14,11,11,21.10
2015,07,14,11,12,21.20
2015,07,14,11,13,21.30
2015,07,14,11,14,21.30
2015,07,14,11,15,21.30
2015,07,14,11,16,21.30
2015,07,14,11,17,21.30
2015,07,14,11,18,21.40
2015,07,14,11,19,21.40
2015,07,14,11,20,21.50
2015,07,14,11,21,21.50
2015,07,14,11,22,21.50
2015,07,14,11,23,21.40
2015,07,14,11,24,21.40
2015,07,14,11,25,21.40
2015,07,14,11,26,21.40
2015,07,14,11,27,21.40
2015,07,14,11,28,21.30
2015,07,14,11,29,21.30
2015,07,14,11,30,21.30
2015,07,14,11,31,21.40
2015,07,14,11,32,21.40
2015,07,14,11,33,21.40
2015,07,14,11,34,21.50
2015,07,14,11,35,21.60
2015,07,14,11,36,21.70
2015,07,14,11,37,21.80
2015,07,14,11,38,21.80
2015,07,14,11,39,21.80
2015,07,14,11,40,21.90
2015,07,14,11,41,21.90
2015,07,14,11,42,21.90
2015,07,14,11,43,21.90
2015,07,14,11,44,22.00
2015,07,14,11,45,22.10
2015,07,14,11,46,22.20
2015,07,14,11,47,22.20
2015,07,14,11,48,22.30
2015,07,14,11,49,22.30
2015,07,14,11,50,22.30
2015,07,14,11,51,22.40
2015,07,14,11,52,22.40
2015,07,14,11,53,22.50
2015,07,14,11,54,22.60
2015,07,14,11,55,22.70
2015,07,14,11,56,22.70
2015,07,14,11,57,22.70
2015,07,14,11,58,22.80
2015,07,14,11,59,22.90
2015,07,14,12,00,22.90
2015,07,14,12,01,22.80
2015,07,14,12,02,22.80
2015,07,14,12,03,22.80
2015,07,14,12,04,22.80
2015,07,14,12,05,22.80
2015,07,14,12,06,22.80
2015,07,14,12,07,22.80
2015,07,14,12,08,22.80
2015,07,14,12,09,22.80
2015,07,14,12,10,22.80
2015,07,14,12,11,22.80
2015,07,14,12,12,22.80
2015,07,14,12,13,22.80
2015,07,14,12,14,22.90
2015,07,14,12,15,22.90
2015,07,14,12,16,22.90
2015,07,14,12,17,22.90
2015,07,14,12,18,23.00
2015,07,14,12,19,23.00
2015,07,14,12,20,23.00
2015,07,14,12,21,23.00
2015,07,14,12,22,23.10
2015,07,14,12,23,23.10
2015,07,14,12,24,23.20
2015,07,14,12,25,23.30
2015,07,14,12,26,23.30
2015,07,14,12,27,23.40
2015,07,14,12,28,23.50
2015,07,14,12,29,23.60
2015,07,14,12,30,23.70
2015,07,14,12,31,23.80
2015,07,14,12,32,23.80
2015,07,14,12,33,23.90
2015,07,14,12,34,23.90
2015,07,14,12,35,23.90
2015,07,14,12,36,23.90
2015,07,14,12,37,23.90
2015,07,14,12,38,23.90
2015,07,14,12,39,23.90
2015,07,14,12,40,23.90
2015,07,14,12,41,23.90
2015,07,14,12,42,24.00
2015,07,14,12,43,24.00
2015,07,14,12,44,24.10
2015,07,14,12,45,24.20
2015,07,14,12,46,24.30
2015,07,14,12,47,24.40
2015,07,14,12,48,24.40
2015,07,14,12,49,24.30
2015,07,14,12,50,24.30
2015,07,14,12,51,24.30
2015,07,14,12,52,24.30
2015,07,14,12,53,24.30
2015,07,14,12,54,24.30
2015,07,14,12,55,24.30
2015,07,14,12,56,24.40
2015,07,14,12,57,24.50
2015,07,14,12,58,24.60
2015,07,14,12,59,24.70
2015,07,14,13,00,24.80
2015,07,14,13,01,24.90
2015,07,14,13,02,25.00
2015,07,14,13,03,25.10
2015,07,14,13,04,25.20
2015,07,14,13,05,25.10
2015,07,14,13,06,25.10
2015,07,14,13,07,25.10
2015,07,14,13,08,25.20
2015,07,14,13,09,25.20
2015,07,14,13,10,25.20
2015,07,14,13,11,25.10
2015,07,14,13,12,25.00
2015,07,14,13,13,25.00
2015,07,14,13,14,24.90
2015,07,14,13,15,24.80
2015,07,14,13,16,24.90
2015,07,14,13,17,24.90
2015,07,14,13,18,25.00
2015,07,14,13,19,25.00
2015,07,14,13,20,25.10
2015,07,14,13,21,25.00
2015,07,14,13,22,24.90
2015,07,14,13,23,24.90
2015,07,14,13,24,24.80
2015,07,14,13,25,24.80
2015,07,14,13,26,24.80
2015,07,14,13,27,24.80
2015,07,14,13,28,24.80
2015,07,14,13,29,24.80
2015,07,14,13,30,24.80
2015,07,14,13,31,24.80
2015,07,14,13,32,24.80
2015,07,14,13,33,24.80
2015,07,14,13,34,24.90
2015,07,14,13,35,25.00
2015,07,14,13,36,25.00
2015,07,14,13,37,25.10
2015,07,14,13,38,25.20
2015,07,14,13,39,25.20
2015,07,14,13,40,25.30
2015,07,14,13,41,25.50
2015,07,14,13,42,25.50
2015,07,14,13,43,25.50
2015,07,14,13,44,25.50
2015,07,14,13,45,25.40
2015,07,14,13,46,25.30
2015,07,14,13,47,25.20
2015,07,14,13,48,25.20
2015,07,14,13,49,25.10
2015,07,14,13,50,25.10
2015,07,14,13,51,25.10
2015,07,14,13,52,25.20
2015,07,14,13,53,25.30
2015,07,14,13,54,25.30
2015,07,14,13,55,25.20
2015,07,14,13,56,25.20
2015,07,14,13,57,25.20
2015,07,14,13,58,25.20
2015,07,14,13,59,25.20
2015,07,14,14,00,25.30
2015,07,14,14,01,25.50
2015,07,14,14,02,25.60
2015,07,14,14,03,25.70
2015,07,14,14,04,25.70
2015,07,14,14,05,25.70
2015,07,14,14,06,25.70
2015,07,14,14,07,25.70
2015,07,14,14,08,25.70
2015,07,14,14,09,25.70
2015,07,14,14,10,25.70
2015,07,14,14,11,25.70
2015,07,14,14,12,25.70
2015,07,14,14,13,25.60
2015,07,14,14,14,25.60
2015,07,14,14,15,25.60
2015,07,14,14,16,25.60
2015,07,14,14,17,25.70
2015,07,14,14,18,25.70
2015,07,14,14,19,25.80
2015,07,14,14,20,25.80
2015,07,14,14,21,25.80
2015,07,14,14,22,25.80
2015,07,14,14,23,25.80
2015,07,14,14,24,25.80
2015,07,14,14,25,25.80
2015,07,14,14,26,25.90
2015,07,14,14,27,25.90
2015,07,14,14,28,25.90
2015,07,14,14,29,25.80
2015,07,14,14,30,25.80
2015,07,14,14,31,25.90
2015,07,14,14,32,25.90
2015,07,14,14,33,26.00
2015,07,14,14,34,26.00
2015,07,14,14,35,26.10
2015,07,14,14,36,26.00
2015,07,14,14,37,25.90
2015,07,14,14,38,25.80
2015,07,14,14,39,25.70
2015,07,14,14,40,25.70
2015,07,14,14,41,25.60
2015,07,14,14,42,25.60
2015,07,14,14,43,25.60
2015,07,14,14,44,25.60
2015,07,14,14,45,25.60
2015,07,14,14,46,25.50
2015,07,14,14,47,25.60
2015,07,14,14,48,25.70
2015,07,14,14,49,25.80
2015,07,14,14,50,25.90
2015,07,14,14,51,26.00
2015,07,14,14,52,26.10
2015,07,14,14,53,26.10
2015,07,14,14,54,26.00
2015,07,14,14,55,25.90
2015,07,14,14,56,25.90
2015,07,14,14,57,25.80
2015,07,14,14,58,25.80
2015,07,14,14,59,25.80
2015,07,14,15,00,25.90
2015,07,14,15,01,25.90
2015,07,14,15,02,25.90
2015,07,14,15,03,25.90
2015,07,14,15,04,26.00
2015,07,14,15,05,26.20
2015,07,14,15,06,26.30
2015,07,14,15,07,26.40
2015,07,14,15,08,26.30
2015,07,14,15,09,26.30
2015,07,14,15,10,26.20
2015,07,14,15,11,26.20
2015,07,14,15,12,26.10
2015,07,14,15,13,26.10
2015,07,14,15,14,26.00
2015,07,14,15,15,26.00
2015,07,14,15,16,26.00
2015,07,14,15,17,26.10
2015,07,14,15,18,26.10
2015,07,14,15,19,26.10
2015,07,14,15,20,26.10
2015,07,14,15,21,26.10
2015,07,14,15,22,26.00
2015,07,14,15,23,25.90
2015,07,14,15,24,25.80
2015,07,14,15,25,25.80
2015,07,14,15,26,25.70
2015,07,14,15,27,25.70
2015,07,14,15,28,25.60
2015,07,14,15,29,25.60
2015,07,14,15,30,25.60
2015,07,14,15,31,25.70
2015,07,14,15,32,25.80
2015,07,14,15,33,25.80
2015,07,14,15,34,25.90
2015,07,14,15,35,25.90
2015,07,14,15,36,25.90
2015,07,14,15,37,25.80
2015,07,14,15,38,25.80
2015,07,14,15,39,25.80
2015,07,14,15,40,25.70
2015,07,14,15,41,25.60
2015,07,14,15,42,25.60
2015,07,14,15,43,25.60
2015,07,14,15,44,25.50
2015,07,14,15,45,25.50
2015,07,14,15,46,25.50
2015,07,14,15,47,25.50
2015,07,14,15,48,25.60
2015,07,14,15,49,25.70
2015,07,14,15,50,25.70
2015,07,14,15,51,25.70
2015,07,14,15,52,25.70
2015,07,14,15,53,25.60
2015,07,14,15,54,25.50
2015,07,14,15,55,25.40
2015,07,14,15,56,25.40
2015,07,14,15,57,25.30
2015,07,14,15,58,25.30
2015,07,14,15,59,25.30
2015,07,14,16,00,25.30
2015,07,14,16,01,25.30
2015,07,14,16,02,25.30
2015,07,14,16,03,25.30
2015,07,14,16,04,25.30
2015,07,14,16,05,25.30
2015,07,14,16,06,25.30
2015,07,14,16,07,25.30
2015,07,14,16,08,25.30
2015,07,14,16,09,25.20
2015,07,14,16,10,25.20
2015,07,14,16,11,25.20
2015,07,14,16,12,25.20
2015,07,14,16,13,25.20
2015,07,14,16,14,25.20
2015,07,14,16,15,25.20
2015,07,14,16,16,25.20
2015,07,14,16,17,25.30
2015,07,14,16,18,25.30
2015,07,14,16,19,25.30
2015,07,14,16,20,25.30
2015,07,14,16,21,25.40
2015,07,14,16,22,25.40
2015,07,14,16,23,25.40
2015,07,14,16,24,25.40
2015,07,14,16,25,25.40
2015,07,14,16,26,25.40
2015,07,14,16,27,25.30
2015,07,14,16,28,25.30
2015,07,14,16,29,25.30
2015,07,14,16,30,25.30
2015,07,14,16,31,25.30
2015,07,14,16,32,25.30
2015,07,14,16,33,25.30
2015,07,14,16,34,25.20
2015,07,14,16,35,25.20
2015,07,14,16,36,25.20
2015,07,14,16,37,25.10
2015,07,14,16,38,25.10
2015,07,14,16,39,25.10
2015,07,14,16,40,25.10
2015,07,14,16,41,25.20
2015,07,14,16,42,25.20
2015,07,14,16,43,25.20
2015,07,14,16,44,25.20
2015,07,14,16,45,25.20
2015,07,14,16,46,25.20
2015,07,14,16,47,25.20
2015,07,14,16,48,25.20
2015,07,14,16,49,25.20
2015,07,14,16,50,25.20
2015,07,14,16,51,25.20
2015,07,14,16,52,25.20
2015,07,14,16,53,25.20
2015,07,14,16,54,25.20
2015,07,14,16,55,25.20
2015,07,14,16,56,25.20
2015,07,14,16,57,25.20
2015,07,14,16,58,25.20
2015,07,14,16,59,25.20
2015,07,14,17,00,25.20
2015,07,14,17,01,25.20
2015,07,14,17,02,25.20
2015,07,14,17,03,25.20
2015,07,14,17,04,25.20
2015,07,14,17,05,25.20
2015,07,14,17,06,25.20
2015,07,14,17,07,25.20
2015,07,14,17,08,25.30
2015,07,14,17,09,25.30
2015,07,14,17,10,25.30
2015,07,14,17,11,25.30
2015,07,14,17,12,25.30
2015,07,14,17,13,25.30
2015,07,14,17,14,25.40
2015,07,14,17,15,25.40
2015,07,14,17,16,25.30
2015,07,14,17,17,25.30
2015,07,14,17,18,25.30
2015,07,14,17,19,25.30